Location: Unspecified
(0.0000°N, 0.0000°E)
Time: 02:22:18
(UTC+00:00)

S-56A Canister/Altair - Visible Passes

Search period start: 21 August 2014 00:00
Search period end: 31 August 2014 00:00
Orbit: 632 x 2504 km, 38.9° (Epoch: 17 August)

Date Brightness Start Highest point End Pass type
(mag) Time Alt. Az. Time Alt. Az. Time Alt. Az.
21 Aug 10.9 21:29:31 10° NNW 21:35:16 21° N 21:35:16 21° N visible
22 Aug 10.8 20:56:38 10° NNW 21:04:34 22° NNE 21:04:34 22° NNE visible
22 Aug 11.5 23:01:27 10° NW 23:02:00 12° NW 23:02:00 12° NW visible
23 Aug 10.8 20:23:46 10° NNW 20:33:02 20° NNE 20:33:54 20° NNE visible
23 Aug 11.2 22:28:17 10° NW 22:31:21 19° NW 22:31:21 19° NW visible
24 Aug 10.8 19:50:58 10° NNW 19:59:51 19° NNE 20:03:18 17° NE visible
24 Aug 10.8 21:55:09 10° NW 22:00:45 27° NNW 22:00:45 27° NNW visible
25 Aug 11.0 19:18:15 10° N 19:26:35 17° NNE 19:32:45 12° ENE visible
25 Aug 10.4 21:22:02 10° NW 21:30:13 36° NNW 21:30:13 36° NNW visible
26 Aug 11.1 18:45:40 10° N 18:53:15 15° NNE 19:00:12 10° ENE visible
26 Aug 10.2 20:48:58 10° NNW 20:59:44 42° N 20:59:44 42° N visible
26 Aug 11.5 22:56:02 10° WNW 22:57:12 13° WNW 22:57:12 13° WNW visible
27 Aug 11.2 18:13:17 10° N 18:19:50 14° NNE 18:26:03 10° NE visible
27 Aug 10.1 20:15:57 10° NNW 20:29:08 41° NE 20:29:19 41° NE visible
27 Aug 11.0 22:22:33 10° NW 22:26:48 23° WNW 22:26:48 23° WNW visible
28 Aug 10.2 19:43:00 10° NNW 19:56:03 37° NE 19:58:59 33° ENE visible
28 Aug 10.5 21:49:07 10° NW 21:56:28 36° WNW 21:56:28 36° WNW visible
29 Aug 10.4 19:10:08 10° NNW 19:22:54 33° NE 19:28:44 24° ENE visible
29 Aug 10.0 21:15:46 10° NW 21:26:13 54° NW 21:26:13 54° NW visible
30 Aug 10.7 18:37:21 10° NNW 18:49:41 30° NE 18:58:33 15° E visible
30 Aug 9.5 20:42:29 10° NW 20:56:02 77° NNW 20:56:02 77° NNW visible
30 Aug 11.5 22:52:29 10° W 22:53:32 12° W 22:53:32 12° W visible
